CAPE
334 555 1068 1081 785 859 914 971 755 656 725 938 1000 847 951 1119 849 981 1139 1219 1212 1147 1164 1141 1152 1152 1285 1397 1410 1220 1318 1333 1308 1158 1262 1557 1629 1818 1970 1957 1841 1713 1713
240 559 1219 1222 969 763 849 1185 890 717 880 907 886 906 1098 1176 1133 1328 1350 1169 1223 1226 1253 1203 1198 1128 993 1353 1317 1384 1248 1228 1438 1414 1383 1656 1542 1593 1748 1812 1860 1444 1503
93 719 1118 1245 1166 741 718 1201 737 781 995 888 927 1015 1043 958 1006 976 850 782 653 543 422 320 329 373 421 474 641 838 1035 1247 1308 1429 1205 1298 1200 1451 1753 1263 1877 1872 1596
181 669 1138 1215 1168 867 624 951 755 691 855 1127 649 750 736 584 427 344 302 291 246 220 168 137 105 86 100 144 172 212 260 394 675 918 876 1000 942 1281 1276 1638 1424 2073 1899
252 598 1034 1039 1086 956 779 711 867 775 722 880 899 562 274 189 114 71 63 72 63 50 39 52 74 155 278 261 154 97 110 193 272 454 366 594 631 1172 1657 1278 1858 1907 1726
202 507 1084 1134 944 751 877 922 889 783 679 682 691 577 390 220 183 150 92 34 37 73 162 396 582 740 775 897 914 607 483 362 279 184 119 223 153 463 1593 1810 1740 1853 1703
304 536 1087 1053 962 799 778 664 487 597 731 746 685 498 369 141 31 55 132 382 538 694 800 714 728 768 833 876 883 947 930 977 1000 726 406 206 331 92 843 1471 1634 1614 1616
174 703 753 927 840 756 649 523 457 434 556 688 560 630 372 317 411 390 439 578 726 774 728 798 924 992 1028 1111 1137 1219 1181 1250 1138 799 418 191 706 730 580 855 1314 1539 1429
330 709 721 856 742 714 687 598 493 426 387 475 518 496 324 398 580 604 588 591 725 814 793 819 805 883 1091 1328 1426 1555 1415 1392 1233 893 752 623 678 1064 925 496 590 932 1070
313 385 311 503 717 815 885 1039 838 501 439 484 545 500 516 781 732 772 882 833 784 897 1154 1278 1293 1215 1028 1227 1291 1466 1395 1021 924 799 539 216 290 1032 1151 1029 303 328 497
286 281 167 209 250 422 588 883 949 768 663 692 420 489 601 293 167 284 521 852 1191 1339 1453 1414 990 869 953 853 994 1219 819 339 332 608 599 230 29 593 1324 1214 636 328 424
48 91 144 144 51 258 580 562 781 607 679 347 357 321 179 372 434 532 678 748 998 1514 1305 1303 1346 1198 775 517 702 926 163 41 430 248 54 0 1 138 843 1274 705 544 576
2 115 322 225 275 166 92 180 321 554 219 104 35 80 216 314 436 811 987 1226 1195 1360 1482 1643 1613 1526 1268 967 737 474 134 133 196 352 415 483 512 617 509 749 729 356 345
0 0 0 10 7 15 27 0 5 212 112 18 7 7 94 313 597 1036 1128 1162 1024 327 106 204 422 503 630 882 974 719 392 321 285 352 360 436 582 799 750 493 716 616 538
0 0 0 0 0 0 0 0 0 0 0 0 2 63 254 372 620 949 1015 1036 756 604 738 811 930 794 805 889 935 792 618 579 516 537 594 641 727 822 958 968 632 667 767
0 0 0 2 8 52 127 99 58 7 0 51 149 170 347 423 619 1034 995 743 677 512 569 262 902 522 816 927 932 645 439 435 624 518 480 445 610 799 1007 872 721 703 493
0 3 0 0 11 43 150 269 234 130 53 77 217 346 471 377 832 1186 771 589 474 0 0 645 925 759 694 41 410 464 462 473 671 609 519 550 715 1089 1144 1152 876 386 197
0 0 0 1 29 49 99 210 188 189 499 495 539 530 658 576 955 1218 877 846 251 1 129 894 860 658 118 222 441 738 950 669 725 711 717 696 939 1035 1007 937 501 275 331
0 0 7 75 155 142 180 146 47 143 514 1057 800 1044 1069 945 1338 1421 1190 881 808 397 599 994 695 552 517 815 995 785 902 682 742 861 684 785 923 869 840 803 538 297 61
0 0 6 156 298 277 211 160 108 65 396 972 945 861 1224 1407 1384 1041 806 757 922 783 1106 958 702 920 823 1074 726 544 790 859 839 993 748 837 838 826 790 583 268 79 234
0 0 19 155 293 180 53 66 24 5 647 959 939 946 838 1142 1075 562 23 1145 936 904 1090 564 1034 555 817 1217 881 692 750 913 1005 1029 958 801 862 915 721 297 42 103 0
0 0 4 108 127 16 0 0 64 425 906 826 787 782 856 957 995 530 373 1051 956 975 383 13 0 231 406 1216 986 431 637 655 870 999 1026 800 878 916 624 127 207 13 0
0 0 0 84 60 18 0 19 339 752 841 836 941 1016 781 911 1011 912 1128 1240 713 194 65 0 0 216 246 691 1253 851 300 189 283 584 826 833 781 549 386 278 87 10 0
0 0 0 30 26 69 47 201 219 351 515 669 851 835 975 997 1065 1289 1523 1286 1060 628 249 76 0 60 106 420 1031 1269 832 607 445 452 694 796 661 576 365 144 81 32 0
0 0 0 0 40 76 133 359 440 587 763 974 948 740 886 942 1351 1390 1606 1208 1205 1087 573 398 376 762 379 521 1051 1308 1171 747 656 566 226 274 641 445 293 175 67 6 0
5 0 25 57 97 84 180 416 435 615 993 1172 1171 1045 1122 1653 1194 1479 1666 1167 1287 1424 952 1081 881 1240 1296 1089 1332 1625 1566 1165 759 626 276 233 581 671 441 135 14 0 0
CIN
-2 -4 -1 0 -7 -6 -3 -3 -14 -19 -16 -9 -7 -16 -12 -4 -14 -4 0 0 0 0 0 0 0 0 0 0 0 -1 0 0 0 -7 -6 0 0 -2 0 0 -1 0 0
-42 -5 -1 -1 -1 -11 -11 -2 -13 -23 -14 -13 -18 -17 -5 -2 -4 0 0 0 0 0 0 0 0 0 -2 0 0 0 0 -1 0 0 0 0 0 -2 -2 0 -1 -20 -8
-99 -3 -2 -1 0 -15 -23 -2 -27 -21 -10 -17 -14 -9 -5 -14 -10 -8 -15 -17 -29 -34 -40 -63 -71 -57 -46 -45 -27 -18 -6 -3 -1 -1 -2 -4 -5 -3 0 -3 0 0 -3
-90 -7 -1 -1 0 -8 -38 -18 -25 -25 -14 -3 -29 -21 -23 -35 -49 -61 -64 -62 -69 -71 -75 -86 -91 -105 -105 -81 -78 -60 -57 -42 -26 -16 -17 -23 -21 -10 -13 -4 -13 0 0
-66 -23 -1 -1 0 -4 -31 -29 -14 -15 -17 -8 -10 -32 -62 -75 -93 -104 -101 -97 -104 -119 -123 -106 -107 -96 -59 -67 -78 -103 -80 -54 -50 -38 -52 -48 -41 -8 -4 -20 0 0 0
-87 -40 0 0 -6 -22 -15 -19 -14 -14 -20 -21 -20 -31 -48 -71 -79 -86 -107 -104 -110 -106 -85 -49 -35 -17 -19 -7 -1 -21 -28 -40 -50 -77 -89 -75 -97 -48 0 0 0 0 0
-72 -27 0 0 -7 -28 -27 -43 -51 -37 -22 -15 -21 -31 -43 -82 -109 -107 -95 -54 -41 -28 -11 -19 -21 -12 -10 -12 -12 -5 -12 -11 -10 -34 -63 -110 -70 -119 -15 0 0 0 0
-148 -24 -7 0 -15 -30 -49 -54 -50 -48 -38 -26 -33 -21 -48 -61 -60 -73 -64 -43 -33 -20 -24 -25 -17 -5 -1 0 -15 -7 -9 -15 -20 -32 -76 -129 -43 -34 -27 -13 -2 -1 -5
-75 -24 -19 -5 -9 -14 -30 -38 -45 -47 -55 -50 -42 -39 -60 -61 -52 -48 -55 -52 -35 -34 -40 -32 -29 -29 -26 -13 -17 -12 -19 -15 -21 -56 -65 -91 -76 -48 -30 -21 -14 -3 -6
-58 -53 -65 -51 -23 -19 -13 -3 -26 -55 -62 -55 -49 -54 -59 -46 -47 -47 -39 -41 -42 -43 -40 -29 -23 -32 -47 -38 -34 -27 -31 -46 -64 -74 -102 -143 -127 -49 -34 -29 -45 -22 -8
-42 -52 -80 -91 -92 -73 -43 -16 -14 -38 -55 -48 -65 -58 -60 -74 -96 -90 -69 -53 -38 -32 -31 -29 -33 -45 -42 -50 -50 -44 -80 -130 -134 -107 -117 -160 -204 -96 -36 -26 -41 -44 -26
-181 -125 -106 -109 -174 -101 -53 -55 -37 -53 -60 -86 -83 -79 -83 -83 -91 -81 -74 -65 -50 -23 -25 -20 -24 -57 -67 -80 -87 -86 -188 -97 -156 -161 -158 0 -7 -151 -65 -47 -57 -43 -21
-135 -134 -95 -108 -101 -135 -159 -111 -99 -77 -111 -123 -121 -100 -99 -91 -94 -71 -71 -60 -51 -34 -35 -35 -44 -57 -68 -86 -93 -132 -208 -207 -206 -145 -139 -152 -135 -87 -83 -31 -43 -34 -29
0 0 0 -235 -230 -259 -227 0 -121 -129 -150 -186 -190 -174 -111 -79 -77 -45 -38 -45 -55 -124 -143 -143 -131 -120 -116 -90 -101 -120 -167 -173 -176 -162 -144 -134 -109 -79 -69 -38 -29 -30 -24
0 0 0 0 0 0 0 0 0 0 0 0 -103 -146 -119 -75 -58 -41 -47 -52 -81 -96 -87 -80 -88 -90 -72 -88 -102 -117 -127 -119 -124 -136 -146 -130 -102 -73 -47 -31 -24 -23 -20
0 0 0 -136 -170 -245 -179 -182 -199 -180 0 -186 -129 -86 -80 -77 -57 -37 -37 -60 -77 -77 -93 -112 -77 -89 -72 -84 -112 -148 -147 -137 -121 -125 -116 -105 -81 -59 -30 -13 -11 -12 -28
-12 -183 0 0 -248 -214 -162 -117 -108 -151 -212 -172 -109 -88 -71 -88 -58 -43 -52 -66 -84 0 0 -122 -98 -111 -92 -313 -165 -161 -150 -162 -139 -130 -129 -112 -83 -40 -27 -17 -12 -20 -38
0 0 0 -50 -232 -223 -177 -133 -144 -161 -65 -59 -62 -73 -66 -75 -66 -53 -52 -55 -121 -42 -159 -95 -78 -79 -179 -169 -123 -91 -106 -127 -90 -96 -97 -86 -82 -61 -48 -27 -31 -35 -23
0 0 -308 -214 -171 -178 -169 -155 -213 -158 -58 -47 -56 -52 -51 -62 -52 -49 -34 -55 -81 -102 -93 -77 -75 -74 -55 -50 -70 -99 -99 -93 -74 -69 -69 -90 -81 -69 -57 -44 -39 -34 -109
0 0 -335 -237 -186 -182 -199 -208 -210 -229 -74 -45 -49 -65 -47 -45 -49 -63 -59 -57 -93 -75 -58 -59 -60 -69 -78 -66 -88 -109 -134 -111 -77 -65 -62 -83 -75 -67 -61 -64 -87 -126 -56
0 0 -363 -248 -202 -231 -293 -271 -312 -329 -37 -45 -53 -47 -53 -46 -48 -72 -285 -58 -68 -57 -49 -82 -68 -75 -71 -74 -52 -69 -90 -92 -59 -59 -69 -82 -79 -66 -68 -108 -197 -144 0
0 0 -289 -252 -241 -332 0 0 -262 -68 -45 -51 -52 -52 -48 -52 -39 -60 -81 -64 -76 -61 -86 -111 0 -99 -102 -86 -55 -94 -44 -61 -54 -72 -76 -87 -78 -71 -88 -176 -131 -116 0
0 0 0 -312 -308 -366 0 -240 -165 -78 -54 -41 -39 -46 -46 -58 -56 -44 -45 -63 -100 -103 -67 0 0 -96 -77 -86 -83 -59 -66 -88 -105 -127 -101 -88 -86 -91 -117 -135 -206 -222 0
0 0 0 -350 -359 -325 -368 -229 -186 -126 -70 -44 -51 -58 -44 -54 -61 -59 -53 -58 -66 -90 -95 -40 0 -126 -146 -76 -68 -68 -89 -76 -71 -82 -106 -108 -128 -117 -154 -204 -244 -255 0
0 0 0 0 -348 -340 -327 -207 -168 -113 -86 -53 -47 -44 -46 -51 -55 -56 -64 -46 -76 -83 -114 -111 -98 -89 -134 -95 -61 -50 -58 -111 -139 -109 -130 -162 -156 -183 -201 -214 -258 -203 0
-112 0 -360 -308 -310 -349 -308 -223 -175 -124 -72 -48 -42 -42 -37 -42 -56 -70 -43 -65 -76 -76 -79 -75 -91 -67 -60 -81 -75 -57 -31 -46 -91 -97 -174 -191 -99 -134 -216 -274 -396 0 0
Wind_Speed
32 33 33 33 34 34 33 33 33 33 33 32 31 30 30 29 29 29 29 29 28 28 27 26 24 23 22 21 20 20 21 21 21 21 20 21 20 20 16 18 19 14 14
33 34 33 33 33 33 33 32 32 32 31 30 30 30 29 29 29 29 28 28 27 27 26 25 24 23 22 21 21 20 21 20 21 21 20 20 20 18 18 19 21 17 12
34 34 33 33 32 33 32 31 31 30 29 29 29 28 28 28 28 27 26 25 24 24 23 22 22 21 20 20 20 19 19 19 19 19 19 18 18 17 18 18 15 16 12
35 34 33 33 32 32 31 30 29 29 28 28 28 27 27 26 26 25 24 23 21 21 20 19 18 17 17 17 17 18 17 17 17 16 16 17 17 17 17 18 17 15 13
35 34 33 32 32 31 30 29 28 28 27 26 26 26 25 24 23 22 21 20 19 18 17 17 16 16 16 16 16 16 16 16 16 16 16 16 15 17 16 16 16 16 19
34 34 33 32 31 30 30 29 28 27 26 25 25 24 23 22 20 20 19 18 17 17 16 16 15 15 15 15 15 15 15 15 15 16 16 15 15 15 16 16 16 16 16
33 33 32 32 31 31 30 28 27 26 25 24 23 22 21 20 19 18 18 17 17 16 15 15 14 14 14 14 14 14 14 15 16 17 16 15 15 16 14 15 16 17 18
32 32 32 32 31 30 29 27 27 26 24 23 22 21 20 19 18 18 17 16 16 15 14 14 14 13 14 14 14 15 15 16 16 16 15 15 14 14 15 14 15 15 16
31 31 31 31 31 29 27 26 25 24 23 22 21 20 19 18 18 17 16 15 14 14 13 13 13 13 14 14 15 14 15 15 16 15 14 13 13 13 16 15 14 15 16
30 30 30 30 30 28 26 25 24 23 22 21 21 20 19 18 17 16 15 14 14 13 13 13 13 13 15 14 16 15 15 14 15 14 14 14 13 13 16 16 14 14 15
29 29 30 30 29 28 26 25 24 23 22 22 21 20 19 17 17 16 14 14 14 13 13 13 14 13 14 14 15 16 14 14 13 13 14 15 13 12 11 13 14 14 16
29 29 29 29 28 27 26 25 24 23 22 22 21 19 18 17 16 15 14 14 14 13 13 12 13 14 15 15 15 14 14 15 13 12 13 13 14 14 12 13 12 14 15
28 28 29 29 28 27 25 25 24 23 22 22 20 19 18 17 15 14 14 13 14 13 13 13 13 15 15 15 16 15 14 14 13 13 13 12 12 13 13 12 12 13 13
26 27 29 28 27 27 26 25 24 23 22 21 20 19 17 17 15 14 14 13 14 13 14 14 13 13 14 15 16 16 15 14 13 12 12 11 11 11 11 12 11 11 13
26 27 29 28 28 26 25 25 23 22 21 20 20 19 18 17 16 15 13 14 13 14 14 12 12 13 13 15 16 16 15 15 14 13 12 11 10 9 11 11 10 9 11
25 26 28 28 28 26 24 23 23 22 21 20 20 19 17 15 16 15 14 13 14 14 14 12 11 11 13 15 16 16 15 15 15 15 13 10 9 9 10 10 9 7 7
25 25 27 27 27 26 23 22 22 22 21 20 20 18 18 15 16 16 15 12 13 15 13 12 11 13 13 15 16 16 16 15 15 15 14 11 10 10 10 9 8 8 8
23 25 25 25 25 25 22 21 21 19 18 17 16 16 16 16 15 15 11 12 14 14 12 12 11 14 13 14 16 16 16 16 15 15 13 13 12 12 11 10 10 10 10
23 23 24 22 23 23 22 20 19 16 15 19 19 16 13 13 15 13 6 19 17 14 16 14 14 12 12 13 16 16 17 6 15 15 14 13 13 13 12 11 11 10 10
23 22 23 21 20 21 19 21 23 20 21 24 23 19 13 12 12 9 12 19 17 11 12 14 16 12 14 11 14 15 13 13 14 14 14 14 12 12 12 13 13 12 12
23 24 24 22 23 18 17 18 19 17 19 25 24 20 18 11 17 14 13 11 14 10 12 13 15 14 15 16 16 16 15 14 13 12 12 11 11 11 11 12 13 14 15
26 25 25 25 22 22 19 16 13 10 8 22 24 22 15 14 17 20 14 9 10 10 12 11 12 11 14 16 16 15 14 13 13 10 10 10 10 10 11 12 12 12 14
24 23 23 24 21 18 17 11 6 5 9 5 21 23 19 17 17 18 18 8 9 10 10 13 12 12 14 14 16 15 14 13 15 14 10 10 10 10 11 11 10 11 13
28 18 22 20 18 16 13 10 12 13 15 11 5 19 18 22 17 20 18 7 10 9 10 11 11 11 12 13 15 15 12 13 14 11 12 11 10 9 9 10 10 10 11
19 18 18 19 16 15 12 11 12 11 11 11 24 24 21 25 22 22 15 20 9 11 9 10 11 10 10 10 11 12 12 12 13 11 9 10 9 8 7 7 9 9 8
9 13 12 16 16 14 13 11 11 12 10 5 6 10 13 19 24 10 8 9 21 18 12 12 16 12 16 16 17 15 14 12 12 10 9 7 9 10 6 6 8 8 10
Wind_Direction
131 133 127 121 119 117 112 109 111 115 116 117 115 120 120 119 111 105 104 107 105 106 108 109 111 110 111 111 122 124 123 112 115 110 99 130 101 104 68 81 91 63 65
127 134 133 128 125 121 118 117 116 118 121 124 124 122 119 115 107 103 103 105 105 104 103 104 104 100 100 102 116 123 119 117 106 109 91 100 104 84 108 109 113 85 56
132 138 138 135 127 128 127 123 121 124 127 128 127 122 118 115 106 110 113 117 120 118 116 114 111 109 111 114 123 130 124 130 127 132 112 148 131 109 123 115 80 91 74
139 142 142 139 132 134 133 129 130 130 133 131 127 125 122 118 114 117 117 123 126 127 125 126 127 131 136 138 144 139 143 143 152 168 175 152 158 142 139 131 112 102 85
145 149 145 140 138 137 137 137 137 139 139 135 132 128 126 127 125 123 123 130 136 136 135 132 133 133 136 144 149 155 164 155 156 172 198 174 150 147 133 130 122 120 135
146 151 147 143 142 142 141 141 140 139 141 141 136 130 133 133 135 136 141 141 140 137 136 141 146 143 138 143 144 150 161 158 168 167 168 155 139 130 135 136 138 136 128
141 149 150 149 149 148 148 146 143 142 143 140 137 131 139 144 149 151 149 143 143 145 146 150 158 153 163 165 161 157 159 171 173 173 163 152 133 145 135 140 145 146 147
138 148 152 155 156 153 152 150 147 146 148 149 148 146 151 152 155 157 153 150 151 148 152 152 158 159 187 184 180 184 188 182 174 167 165 154 161 153 148 145 151 147 149
145 151 152 157 160 159 156 153 152 150 153 157 157 156 161 163 165 164 163 159 158 162 166 158 165 173 184 168 190 183 188 188 179 168 160 151 157 172 173 161 160 165 163
152 155 157 159 165 164 162 158 157 154 157 160 162 162 167 170 170 169 165 167 170 168 170 159 164 172 193 182 186 185 174 160 180 161 177 173 173 183 181 174 168 174 180
159 161 163 166 168 170 167 168 165 165 165 167 165 162 165 168 172 175 174 175 171 173 163 171 170 173 175 184 187 177 167 170 168 171 180 189 186 169 149 176 179 181 190
159 164 168 170 169 168 172 175 175 172 173 169 166 159 164 167 177 181 188 184 178 178 175 168 171 189 204 186 167 162 192 186 172 164 156 174 187 185 174 178 177 189 191
156 165 169 170 173 168 166 173 175 175 174 174 175 169 163 177 179 184 180 178 178 177 184 177 183 189 192 188 177 168 167 164 162 169 170 171 184 177 178 179 176 193 192
157 161 167 168 168 168 170 171 172 171 172 175 176 175 169 179 181 176 167 170 166 157 149 162 172 183 190 189 179 177 179 177 167 169 178 182 186 184 178 184 184 198 202
156 161 169 166 167 166 165 175 174 172 172 176 184 187 182 183 184 181 167 146 145 148 155 166 182 203 207 216 189 189 198 195 189 174 167 170 178 184 189 187 183 196 210
155 160 164 166 167 165 163 169 177 178 182 185 189 190 186 172 178 166 153 142 149 140 152 166 185 171 205 222 196 196 200 196 191 185 176 172 172 169 171 176 173 171 173
159 161 167 166 169 169 164 167 179 181 186 184 190 188 186 172 177 172 184 84 153 143 169 189 194 178 193 225 205 211 199 179 163 169 178 180 166 154 145 143 148 143 131
160 166 167 168 170 173 171 169 173 163 163 159 167 170 174 166 153 166 109 104 197 111 185 150 169 153 196 224 226 225 213 184 150 135 133 138 134 126 124 123 113 101 98
164 166 167 163 168 170 171 164 160 150 152 186 192 162 137 144 164 144 116 251 282 359 275 108 89 219 218 247 257 256 242 94 86 98 116 121 120 106 102 99 100 92 89
167 165 166 160 159 158 156 172 190 185 183 225 249 180 150 138 146 119 348 224 273 59 49 24 34 171 90 289 308 343 358 357 60 100 95 89 109 99 87 77 69 69 66
169 169 169 163 165 155 157 165 172 161 174 230 236 191 180 142 181 151 119 354 314 23 13 16 15 10 63 356 14 3 356 353 23 61 74 95 99 98 83 69 58 54 46
173 175 172 172 166 169 165 156 138 128 158 239 259 206 169 158 175 193 146 79 28 30 27 43 23 38 43 327 30 49 62 11 14 46 68 93 104 105 86 71 63 68 51
172 171 171 171 169 163 159 138 110 345 326 354 284 238 184 165 163 175 174 40 59 33 43 33 60 43 33 348 11 48 58 50 25 45 58 75 78 96 80 82 76 63 54
178 166 173 170 168 166 156 145 148 149 157 141 61 291 180 189 163 176 178 67 93 57 69 57 60 47 50 36 18 27 74 42 39 135 117 137 109 92 83 76 64 69 61
171 170 170 173 171 169 164 158 156 153 150 151 249 228 282 217 199 195 310 283 154 144 102 48 62 82 73 55 95 131 120 148 145 116 131 106 81 80 85 74 62 64 64
208 176 176 174 176 174 173 169 167 169 163 142 137 333 317 293 238 261 348 30 206 188 160 151 182 171 184 198 193 179 174 162 149 123 125 92 60 59 120 77 56 58 53